Weather History for Winchester, VA

Change the Weather History Date:

Tuesday, June 10, 2014

  Actual Average Record
Temperature  
Mean Temperature 73 °F -  
Max Temperature 82 °F 78 °F 95 °F (2000)
Min Temperature 64 °F 59 °F 45 °F (1988)
Cooling Degree Days 8    
Growing Degree Days 23 (Base 50)    
Moisture  
Dew Point 66 °F    
Average Humidity 82    
Maximum Humidity 100    
Minimum Humidity 54    
Precipitation  
Precipitation 0.02 in - - ()
Sea Level Pressure  
Sea Level Pressure 29.92 in    
Wind  
Wind Speed 1 mph (North)    
Max Wind Speed 6 mph    
Max Gust Speed -    
Visibility 7 miles    
Events Rain    
Averages and records for this station are not official NWS values.
T = Trace of Precipitation, MM = Missing Value Source: NWS Daily Summary

Daily Weather History Graph

Daily Weather History Graph

Search for Another Location

Airport:

Trip Planner

Search our weather history database for the weather conditions in past years. The results will help you decide how hot, cold, wet, or windy it might be!

Date:

Astronomy

Jun. 10, 2014 Rise Set
Actual Time 5:46 AM EDT 8:38 PM EDT
Civil Twilight 5:14 AM EDT 9:10 PM EDT
Nautical Twilight 4:33 AM EDT 9:50 PM EDT
Astronomical Twilight 3:47 AM EDT 10:37 PM EDT
Moon 6:02 PM EDT (6/10) 3:49 AM EDT (6/10)
Length of Visible Light 15h 56m
Length of Day
14h 52m
Waxing Gibbous, 92% of the Moon is Illuminated
Jun 10
Waxing Gibbous
Jun 13
Full
Jun 19
Last Quarter
Jun 27
New
Jul 5
First Quarter

Hourly Weather History & Observations

Time (EDT) Temp. Heat Index Dew Point Humidity Pressure Visibility Wind Dir Wind Speed Gust Speed Precip Events Conditions
12:15 AM 69.8 °F - 68.0 °F 94% 29.92 in 7.0 mi Calm Calm - N/A   Mostly Cloudy
12:35 AM 68.0 °F - 68.0 °F 100% 29.91 in 4.0 mi Calm Calm - N/A   Scattered Clouds
12:55 AM 68.0 °F - 66.2 °F 94% 29.90 in 2.5 mi Calm Calm - N/A   Scattered Clouds
1:15 AM 68.0 °F - 66.2 °F 94% 29.89 in 10.0 mi NW 4.6 mph - N/A   Clear
1:35 AM 68.0 °F - 64.4 °F 88% 29.90 in 10.0 mi NW 4.6 mph - N/A   Scattered Clouds
1:55 AM 68.0 °F - 64.4 °F 88% 29.90 in 10.0 mi NNW 3.5 mph - N/A   Clear
2:15 AM 68.0 °F - 64.4 °F 88% 29.90 in 10.0 mi Calm Calm - N/A   Scattered Clouds
2:35 AM 68.0 °F - 64.4 °F 88% 29.90 in 10.0 mi Calm Calm - N/A   Overcast
2:55 AM 68.0 °F - 64.4 °F 88% 29.91 in 10.0 mi NW 3.5 mph - N/A   Overcast
3:15 AM 68.0 °F - 64.4 °F 88% 29.91 in 10.0 mi WNW 3.5 mph - N/A   Overcast
3:35 AM 68.0 °F - 64.4 °F 88% 29.91 in 10.0 mi Calm Calm - N/A   Overcast
3:55 AM 68.0 °F - 64.4 °F 88% 29.91 in 10.0 mi NW 4.6 mph - N/A   Overcast
4:15 AM 68.0 °F - 64.4 °F 88% 29.90 in 10.0 mi NNW 3.5 mph - N/A   Mostly Cloudy
4:35 AM 68.0 °F - 62.6 °F 83% 29.90 in 10.0 mi NW 5.8 mph - N/A   Mostly Cloudy
5:15 AM 68.0 °F - 62.6 °F 83% 29.89 in 10.0 mi Calm Calm - N/A   Overcast
5:35 AM 68.0 °F - 62.6 °F 83% 29.90 in 10.0 mi Calm Calm - N/A   Overcast
5:55 AM 66.2 °F - 62.6 °F 88% 29.91 in 7.0 mi Calm Calm - N/A   Overcast
6:15 AM 64.4 °F - 62.6 °F 94% 29.91 in 5.0 mi Calm Calm - N/A   Scattered Clouds
6:35 AM 66.2 °F - 64.4 °F 94% 29.91 in 4.0 mi Calm Calm - N/A   Mostly Cloudy
6:55 AM 68.0 °F - 64.4 °F 88% 29.92 in 7.0 mi West 4.6 mph - N/A   Overcast
7:15 AM 68.0 °F - 64.4 °F 88% 29.92 in 7.0 mi NW 3.5 mph - N/A   Overcast
7:35 AM 68.0 °F - 64.4 °F 88% 29.93 in 7.0 mi Calm Calm - N/A   Overcast
7:55 AM 69.8 °F - 64.4 °F 83% 29.93 in 7.0 mi Calm Calm - N/A   Overcast
8:15 AM 69.8 °F - 64.4 °F 83% 29.94 in 7.0 mi Calm Calm - N/A   Overcast
8:35 AM 69.8 °F - 64.4 °F 83% 29.94 in 7.0 mi Calm Calm - N/A   Overcast
8:55 AM 69.8 °F - 64.4 °F 83% 29.94 in 10.0 mi Calm Calm - N/A   Overcast
9:15 AM 69.8 °F - 64.4 °F 83% 29.95 in 7.0 mi NNW 4.6 mph - N/A   Overcast
9:35 AM 71.6 °F - 66.2 °F 83% 29.94 in 7.0 mi Calm Calm - N/A   Overcast
9:55 AM 71.6 °F - 64.4 °F 78% 29.95 in 7.0 mi Calm Calm - N/A   Overcast
10:15 AM 71.6 °F - 66.2 °F 83% 29.95 in 7.0 mi Calm Calm - N/A   Overcast
10:35 AM 73.4 °F - 66.2 °F 78% 29.95 in 7.0 mi Calm Calm - N/A   Overcast
10:55 AM 73.4 °F - 68.0 °F 83% 29.94 in 7.0 mi Calm Calm - N/A   Overcast
11:15 AM 75.2 °F - 68.0 °F 78% 29.94 in 7.0 mi Calm Calm - N/A   Mostly Cloudy
11:35 AM 77.0 °F - 66.2 °F 69% 29.94 in 7.0 mi East 3.5 mph - N/A   Mostly Cloudy
11:55 AM 77.0 °F - 66.2 °F 69% 29.94 in 7.0 mi Calm Calm - N/A   Mostly Cloudy
12:15 PM 78.8 °F - 66.2 °F 65% 29.93 in 7.0 mi NNE 4.6 mph - N/A   Mostly Cloudy
12:35 PM 78.8 °F - 66.2 °F 65% 29.93 in 7.0 mi Calm Calm - N/A   Mostly Cloudy
12:55 PM 78.8 °F - 64.4 °F 61% 29.93 in 10.0 mi Calm Calm - N/A   Overcast
1:15 PM 80.6 °F 82.3 °F 64.4 °F 58% 29.93 in 10.0 mi NE 3.5 mph - N/A   Scattered Clouds
1:55 PM 82.4 °F 83.9 °F 64.4 °F 54% 29.92 in 5.0 mi ENE 4.6 mph - N/A   Haze
2:15 PM 80.6 °F 82.3 °F 64.4 °F 58% 29.92 in 4.0 mi ENE 4.6 mph - N/A   Haze
2:35 PM 82.4 °F 83.9 °F 64.4 °F 54% 29.92 in 2.0 mi Calm Calm - N/A   Haze
3:15 PM 80.6 °F 82.3 °F 64.4 °F 58% 29.91 in 7.0 mi NNE 4.6 mph - N/A   Mostly Cloudy
3:35 PM 82.4 °F 83.9 °F 64.4 °F 54% 29.91 in 1.8 mi Calm Calm - N/A   Haze
3:55 PM 80.6 °F 82.7 °F 66.2 °F 61% 29.91 in 2.5 mi NE 3.5 mph - N/A   Haze
4:55 PM 80.6 °F 82.3 °F 64.4 °F 58% 29.91 in 10.0 mi East 4.6 mph - N/A   Scattered Clouds
5:15 PM 80.6 °F 82.3 °F 64.4 °F 58% 29.92 in 10.0 mi East 4.6 mph - N/A   Mostly Cloudy
5:55 PM 73.4 °F - 69.8 °F 88% 29.93 in 7.0 mi West 3.5 mph - 0.01 in Rain Light Rain
6:15 PM 73.4 °F - 71.6 °F 94% 29.92 in 5.0 mi Calm Calm - N/A Rain Light Rain
6:35 PM 77.0 °F - 71.6 °F 83% 29.92 in 7.0 mi Calm Calm - 0.01 in   Mostly Cloudy
6:55 PM 77.0 °F - 71.6 °F 83% 29.92 in 10.0 mi Calm Calm - 0.01 in   Scattered Clouds
7:15 PM 77.0 °F - 69.8 °F 78% 29.92 in 10.0 mi Calm Calm - N/A   Clear
7:55 PM 77.0 °F - 69.8 °F 78% 29.93 in 10.0 mi Calm Calm - N/A   Clear
8:15 PM 73.4 °F - 69.8 °F 88% 29.92 in 10.0 mi Calm Calm - N/A   Clear
8:35 PM 71.6 °F - 69.8 °F 94% 29.93 in 7.0 mi Calm Calm - N/A   Clear
8:55 PM 71.6 °F - 69.8 °F 94% 29.93 in 5.0 mi Calm Calm - N/A   Clear
9:15 PM 71.6 °F - 69.8 °F 94% 29.94 in 5.0 mi Calm Calm - N/A   Clear
9:35 PM 69.8 °F - 69.8 °F 100% 29.94 in 4.0 mi Calm Calm - N/A   Clear
9:55 PM 69.8 °F - 69.8 °F 100% 29.94 in 1.5 mi Calm Calm - N/A   Mist
10:15 PM 69.8 °F - 68.0 °F 94% 29.95 in 3.0 mi Calm Calm - N/A   Clear
10:35 PM 69.8 °F - 68.0 °F 94% 29.95 in 2.5 mi Calm Calm - N/A   Clear
10:55 PM 69.8 °F - 68.0 °F 94% 29.95 in 2.5 mi Calm Calm - N/A   Clear
11:15 PM 69.8 °F - 68.0 °F 94% 29.96 in 1.8 mi Calm Calm - N/A   Mist
11:35 PM 69.8 °F - 68.0 °F 94% 29.96 in 2.5 mi Calm Calm - N/A   Scattered Clouds
11:55 PM 69.8 °F - 69.8 °F 100% 29.96 in 3.0 mi Calm Calm - N/A   Mostly Cloudy